Home > Weather > Hagen > Past weeks

Flag for Germany Past Weather in Hagen, North Rhine-Westphalia, Germany — Yesterday and Last 2 Weeks

Now
68 °F

Sunny.


Feels Like: 68 °F
Forecast: 56 / 70 °F
Wind: 10 mph from Southwest

Location: Dortmund / Wickede

Current Time: Jul 28, 2016 at 8:28:55 PM

Latest Report: Jul 28, 2016 at 7:50 PM


Visibility: 10 mi

Pressure: 29.92 "Hg

Humidity: 73%

Dew Point: 59 °F

Location of HagenLocation

Past Weather in Hagen — Graph

°F

Hagen Temperature Yesterday

Maximum temperature yesterday: 72 °F (at 2:50 PM)
Minimum temperature yesterday: 57 °F (at 5:50 AM)
Average temperature yesterday: 67 °F

High & Low Weather Summary for the Past Weeks

 TemperatureHumidityPressure
High91 °F (Jul 20, 3:20 PM)88% (Jul 14, 6:20 AM)30.30 "Hg (Jul 14, 6:20 AM)
Low48 °F (Jul 14, 5:20 AM)20% (Jul 20, 5:20 PM)29.86 "Hg (Jul 20, 6:20 PM)
Average70 °F61%30.09 "Hg
* Reported Jul 13 6:50 PM — Jul 28 6:50 PM, Hagen, Weather by CustomWeather, © 2016

Note: Actual official high and low records may vary slightly from our data, if they occured in-between our weather recording intervals... More about our weather records

Advertising

Hagen Weather History for the Previous 24 Hours

Scroll right to see more
 ConditionsComfort  
Time TempWeatherWind HumidityBarometerVisibility
6:50 PM
Thu, Jul 28
70 °FScattered clouds.10 mph64%29.92 "HgN/A
6:20 PM70 °FPassing clouds.12 mph69%29.92 "HgN/A
5:50 PM70 °FPassing clouds.10 mph69%29.92 "HgN/A
5:20 PM70 °FSunny.12 mph69%29.95 "Hg10 mi
4:50 PM68 °FScattered clouds.13 mph69%29.95 "HgN/A
4:20 PM68 °FPassing clouds.10 mph73%29.95 "HgN/A
3:50 PM68 °FScattered clouds.10 mph73%29.95 "HgN/A
3:20 PM68 °FScattered clouds.12 mph73%29.98 "HgN/A
2:50 PM66 °FBroken clouds.10 mph78%29.98 "HgN/A
2:20 PM66 °FBroken clouds.12 mph78%29.98 "HgN/A
1:50 PM64 °FBroken clouds.10 mph83%29.98 "HgN/A
1:20 PM64 °FBroken clouds.10 mph83%29.98 "HgN/A
12:50 PM64 °FBroken clouds.10 mph83%30.01 "HgN/A
12:20 PM63 °FLight rain. Partly sunny.9 mph88%30.01 "Hg6 mi
11:50 AM64 °FPartly sunny.12 mph78%30.01 "HgN/A
11:20 AM64 °FPartly sunny.9 mph83%30.01 "HgN/A
10:50 AM63 °FPartly sunny.13 mph83%30.01 "HgN/A
10:20 AM64 °FPartly sunny.9 mph78%30.01 "HgN/A
9:50 AM64 °FPartly sunny.8 mph78%30.01 "HgN/A
9:20 AM64 °FScattered clouds.6 mph78%30.01 "HgN/A
8:50 AM64 °FPartly sunny.7 mph78%30.01 "HgN/A
8:20 AM63 °FScattered clouds.6 mph77%30.01 "HgN/A
7:50 AM63 °FPartly sunny.6 mph83%30.01 "HgN/A
7:20 AM63 °FPassing clouds.6 mph83%30.01 "HgN/A
6:50 AM61 °FSunny.6 mph83%30.01 "Hg10 mi
6:20 AM61 °FClear.7 mph83%30.01 "Hg10 mi
5:50 AM61 °FPassing clouds.7 mph83%30.01 "HgN/A
5:20 AM61 °FClear.7 mph83%30.01 "Hg10 mi
9:50 PM
Wed, Jul 27
66 °FSunny.7 mph64%30.01 "Hg10 mi
9:20 PM68 °FSunny.8 mph56%30.01 "Hg10 mi
8:50 PM68 °FSunny.8 mph56%30.01 "Hg10 mi
8:20 PM68 °FPassing clouds.9 mph56%30.01 "HgN/A
Weather by CustomWeather, © 2016

See weather overviewHow to use our weather pages